Savoy, IL

1:47 PM CST on February 24, 2017 (GMT -0600)
Univ Of Illinois-Willard

Weather History for KCMI - November, 2013

Change the Weather History Date:

Saturday, November 23, 2013

  Actual Average Record
Temperature  
Mean Temperature 22 °F 38 °F  
Max Temperature 29 °F 47 °F 64 °F (1998)
Min Temperature 15 °F 29 °F 15 °F (2000)
Degree Days  
Heating Degree Days 43 27  
Month to date heating degree days 539 499  
Since 1 July heating degree days 931 960  
Cooling Degree Days 0 0  
Month to date cooling degree days 0 0  
Year to date cooling degree days 1067 944  
Moisture  
Dew Point 16 °F    
Average Humidity 74    
Maximum Humidity 92    
Minimum Humidity 55    
Precipitation  
Precipitation 0.00 in 0.12 in 0.94 in (2003)
Month to date precipitation 1.13 2.68  
Year to date precipitation 29.89 36.38  
Sea Level Pressure  
Sea Level Pressure 30.59 in    
Wind  
Wind Speed 15 mph (NNW)    
Max Wind Speed 26 mph    
Max Gust Speed 35 mph    
Visibility 10 miles    
Events      
T = Trace of Precipitation, MM = Missing Value Source: NWS Daily Summary

Daily Weather History Graph

Daily Weather History Graph

Search for Another Location

Airport or City:

Trip Planner

Search our weather history database for the weather conditions in past years. The results will help you decide how hot, cold, wet, or windy it might be!

Date:

Astronomy

Nov. 23, 2013 Rise Set
Actual Time 6:47 AM CST 4:31 PM CST
Civil Twilight 6:18 AM CST 5:00 PM CST
Nautical Twilight 5:44 AM CST 5:34 PM CST
Astronomical Twilight 5:12 AM CST 6:06 PM CST
Moon 9:59 PM CST (11/23) 11:04 AM CST (11/23)
Length of Visible Light 10h 42m
Length of Day
9h 43m
Waning Gibbous, 69% of the Moon is Illuminated
Nov 23
Waning Gibbous
Nov 25
Last Quarter
Dec 2
New
Dec 9
First Quarter
Dec 17
Full

Hourly Weather History & Observations

Time (CST) Temp. Windchill Dew Point Humidity Pressure Visibility Wind Dir Wind Speed Gust Speed Precip Events Conditions
12:53 AM 27.0 °F 19.5 °F 25.0 °F 92% 30.50 in 10.0 mi NW 6.9 mph - N/A   Clear
1:36 AM 28.4 °F 18.5 °F 26.6 °F 93% 30.47 in 10.0 mi NW 11.5 mph - N/A   Partly Cloudy
1:53 AM 28.0 °F 18.6 °F 26.1 °F 92% 30.50 in 10.0 mi NW 10.4 mph - N/A   Clear
2:53 AM 28.0 °F 18.6 °F 25.0 °F 88% 30.50 in 10.0 mi WNW 10.4 mph - N/A   Clear
3:53 AM 27.0 °F 17.3 °F 24.1 °F 89% 30.49 in 10.0 mi NW 10.4 mph - N/A   Clear
4:53 AM 26.1 °F 17.6 °F 21.0 °F 81% 30.48 in 10.0 mi WNW 8.1 mph - N/A   Clear
5:53 AM 26.1 °F 15.6 °F 21.0 °F 81% 30.49 in 10.0 mi WNW 11.5 mph - N/A   Clear
6:53 AM 25.0 °F 13.6 °F 19.9 °F 81% 30.50 in 10.0 mi WNW 12.7 mph - N/A   Clear
7:53 AM 25.0 °F 12.2 °F 19.0 °F 78% 30.54 in 10.0 mi NW 16.1 mph 24.2 mph N/A   Clear
8:53 AM 27.0 °F 13.9 °F 19.9 °F 75% 30.56 in 10.0 mi NNW 18.4 mph - N/A   Clear
9:53 AM 28.0 °F 14.6 °F 19.0 °F 69% 30.57 in 10.0 mi NNW 20.7 mph 26.5 mph N/A   Scattered Clouds
10:32 AM 28.4 °F 14.7 °F 17.6 °F 64% 30.55 in 10.0 mi NNW 21.9 mph - N/A   Mostly Cloudy
10:53 AM 28.0 °F 13.9 °F 18.0 °F 66% 30.58 in 10.0 mi NNW 23.0 mph 29.9 mph N/A   Mostly Cloudy
11:53 AM 27.0 °F 12.2 °F 18.0 °F 69% 30.58 in 10.0 mi NNW 24.2 mph 28.8 mph N/A   Overcast
12:53 PM 26.1 °F 11.6 °F 15.1 °F 63% 30.58 in 10.0 mi NNW 21.9 mph 31.1 mph N/A   Overcast
1:01 PM 26.6 °F 12.7 °F 15.8 °F 64% 30.55 in 10.0 mi NNW 20.7 mph 27.6 mph N/A   Overcast
1:53 PM 26.1 °F 12.3 °F 14.0 °F 60% 30.60 in 10.0 mi NNW 19.6 mph 29.9 mph N/A   Mostly Cloudy
2:53 PM 24.1 °F 10.6 °F 12.0 °F 60% 30.63 in 10.0 mi NNW 17.3 mph 27.6 mph N/A   Mostly Cloudy
3:53 PM 24.1 °F 9.0 °F 10.9 °F 57% 30.64 in 10.0 mi NNW 21.9 mph 27.6 mph N/A   Mostly Cloudy
4:53 PM 21.9 °F 8.2 °F 10.0 °F 60% 30.66 in 10.0 mi NNW 16.1 mph 23.0 mph N/A   Mostly Cloudy
5:53 PM 21.0 °F 7.6 °F 10.0 °F 63% 30.68 in 10.0 mi NNW 15.0 mph - N/A   Clear
6:53 PM 19.0 °F 7.5 °F 10.0 °F 68% 30.70 in 10.0 mi NNW 10.4 mph - N/A   Clear
7:53 PM 19.0 °F 6.1 °F 9.0 °F 65% 30.70 in 10.0 mi North 12.7 mph - N/A   Clear
8:53 PM 18.0 °F 4.2 °F 9.0 °F 68% 30.71 in 10.0 mi North 13.8 mph - N/A   Clear
9:53 PM 17.1 °F 5.8 °F 8.1 °F 68% 30.73 in 10.0 mi NNW 9.2 mph - N/A   Clear
10:53 PM 16.0 °F 3.6 °F 9.0 °F 74% 30.73 in 10.0 mi North 10.4 mph - N/A   Clear
11:53 PM 15.1 °F 3.3 °F 8.1 °F 74% 30.72 in 10.0 mi North 9.2 mph - N/A   Clear